| time (UTC) | temp C | wind direction | speed KPH | gust KPH | rain 1hr cm | rain 24hr cm | rain mn cm | humidity % | barometer mb |
| 20260506204044 | 7 | 0 | 0.0 | 0.0 | 0.00 | 1.07 | 0.97 | 86 | 1016.5 |
| 20260506202022 | 8 | 0 | 0.0 | 0.0 | 0.00 | 1.09 | 0.97 | 85 | 1016.3 |
| 20260506193022 | 9 | 0 | 0.0 | 0.0 | 0.00 | 1.17 | 0.97 | 91 | 1015.7 |
| 20260506192026 | 9 | 0 | 0.0 | 0.0 | 0.00 | 1.17 | 0.97 | 91 | 1015.6 |
| 20260506191021 | 10 | 0 | 0.0 | 0.0 | 0.00 | 1.19 | 0.97 | 90 | 1015.5 |
| 20260506190022 | 10 | 0 | 0.0 | 0.0 | 0.00 | 1.22 | 0.97 | 89 | 1015.4 |
| 20260506185037 | 10 | 0 | 0.0 | 0.0 | 0.00 | 1.24 | 0.97 | 90 | 1015.3 |
| 20260506184022 | 10 | 0 | 0.0 | 0.0 | 0.00 | 1.27 | 0.97 | 90 | 1015.1 |
| 20260506183022 | 10 | 0 | 0.0 | 0.0 | 0.00 | 1.30 | 0.97 | 91 | 1015.0 |
| 20260506182021 | 10 | 0 | 0.0 | 0.0 | 0.00 | 1.35 | 0.97 | 91 | 1014.9 |
| 20260506180021 | 10 | 0 | 0.0 | 0.0 | 0.00 | 1.42 | 0.97 | 90 | 1014.8 |
| 20260506175022 | 10 | 0 | 0.0 | 0.0 | 0.00 | 1.45 | 0.97 | 90 | 1014.6 |
| 20260506174032 | 10 | 0 | 0.0 | 0.0 | 0.00 | 1.45 | 0.97 | 90 | 1014.5 |
| 20260506173021 | 10 | 0 | 0.0 | 0.0 | 0.00 | 1.47 | 0.97 | 89 | 1014.4 |
| 20260506172046 | 10 | 0 | 0.0 | 0.0 | 0.00 | 1.50 | 0.97 | 88 | 1014.4 |
| 20260506171021 | 10 | 0 | 0.0 | 0.0 | 0.00 | 1.52 | 0.97 | 87 | 1014.3 |
| 20260506170017 | 10 | 0 | 0.0 | 0.0 | 0.00 | 1.55 | 0.97 | 87 | 1014.2 |
| 20260506165021 | 10 | 0 | 0.0 | 0.0 | 0.00 | 1.55 | 0.97 | 86 | 1014.2 |
| 20260506164020 | 10 | 0 | 0.0 | 0.0 | 0.00 | 1.55 | 0.97 | 86 | 1014.1 |
| 20260506163022 | 10 | 0 | 0.0 | 0.0 | 0.00 | 1.55 | 0.97 | 86 | 1014.0 |
| 20260506162030 | 11 | 0 | 0.0 | 0.0 | 0.00 | 1.55 | 0.97 | 86 | 1014.0 |
| 20260506161021 | 11 | 0 | 0.0 | 0.0 | 0.00 | 1.55 | 0.97 | 87 | 1014.0 |
| 20260506160021 | 11 | 0 | 0.0 | 0.0 | 0.00 | 1.55 | 0.97 | 87 | 1014.1 |
| 20260506154047 | 11 | 0 | 0.0 | 0.0 | 0.00 | 1.55 | 0.97 | 86 | 1014.1 |
| 20260506153021 | 10 | 0 | 0.0 | 0.0 | 0.00 | 1.55 | 0.97 | 85 | 1014.1 |
| 20260506152044 | 10 | 0 | 0.0 | 0.0 | 0.00 | 1.55 | 0.97 | 85 | 1014.0 |
| 20260506151044 | 10 | 0 | 0.0 | 0.0 | 0.00 | 1.55 | 0.97 | 86 | 1014.0 |
| 20260506150021 | 10 | 0 | 0.0 | 0.0 | 0.00 | 1.55 | 0.97 | 87 | 1014.0 |
| 20260506144021 | 10 | 0 | 0.0 | 0.0 | 0.00 | 1.55 | 0.97 | 86 | 1014.1 |
| 20260506143020 | 10 | 0 | 0.0 | 0.0 | 0.00 | 1.55 | 0.97 | 87 | 1014.0 |
| 20260506142017 | 10 | 0 | 0.0 | 0.0 | 0.00 | 1.55 | 0.97 | 88 | 1014.1 |
| 20260506140020 | 10 | 0 | 0.0 | 0.0 | 0.00 | 1.55 | 0.97 | 88 | 1014.1 |
| 20260506135022 | 10 | 0 | 0.0 | 0.0 | 0.00 | 1.55 | 0.97 | 89 | 1014.1 |
| 20260506134017 | 10 | 0 | 0.0 | 0.0 | 0.00 | 1.55 | 0.97 | 89 | 1014.2 |
| 20260506133045 | 10 | 0 | 0.0 | 0.0 | 0.00 | 1.55 | 0.97 | 87 | 1014.1 |
| 20260506132023 | 10 | 0 | 0.0 | 0.0 | 0.00 | 1.55 | 0.97 | 87 | 1014.1 |
| 20260506131022 | 10 | 0 | 0.0 | 0.0 | 0.00 | 1.55 | 0.97 | 88 | 1014.0 |
| 20260506124022 | 10 | 0 | 0.0 | 0.0 | 0.00 | 1.55 | 0.97 | 89 | 1013.8 |
| 20260506123022 | 10 | 0 | 0.0 | 0.0 | 0.00 | 1.55 | 0.97 | 90 | 1013.8 |
| 20260506122017 | 10 | 0 | 0.0 | 0.0 | 0.00 | 1.55 | 0.97 | 89 | 1013.8 |
| 20260506121021 | 9 | 0 | 0.0 | 0.0 | 0.00 | 1.55 | 0.97 | 89 | 1013.7 |
| 20260506120022 | 9 | 0 | 0.0 | 0.0 | 0.00 | 1.55 | 0.97 | 90 | 1013.6 |
| 20260506115022 | 9 | 0 | 0.0 | 0.0 | 0.00 | 1.55 | 0.97 | 91 | 1013.6 |
| 20260506114021 | 10 | 0 | 0.0 | 0.0 | 0.03 | 1.55 | 0.97 | 92 | 1013.4 |
| 20260506113043 | 10 | 0 | 0.0 | 0.0 | 0.03 | 1.55 | 0.97 | 94 | 1013.4 |
| 20260506111021 | 8 | 0 | 0.0 | 0.0 | 0.03 | 1.55 | 0.97 | 97 | 1013.6 |
| 20260506110021 | 8 | 0 | 0.0 | 0.0 | 0.03 | 1.55 | 0.97 | 97 | 1013.7 |
| 20260506105021 | 8 | 0 | 0.0 | 0.0 | 0.05 | 1.55 | 0.97 | 97 | 1013.7 |
| 20260506104018 | 8 | 0 | 0.0 | 0.0 | 0.05 | 1.55 | 0.97 | 97 | 1013.8 |
| 20260506103021 | 8 | 0 | 0.0 | 0.0 | 0.03 | 1.55 | 0.94 | 97 | 1013.8 |
| 20260506102023 | 8 | 0 | 0.0 | 0.0 | 0.05 | 1.55 | 0.94 | 97 | 1013.7 |
| 20260506101017 | 7 | 0 | 0.0 | 0.0 | 0.05 | 1.55 | 0.94 | 97 | 1013.7 |
| 20260506100019 | 8 | 0 | 0.0 | 0.0 | 0.05 | 1.55 | 0.94 | 97 | 1013.6 |
| 20260506095045 | 7 | 0 | 0.0 | 0.0 | 0.05 | 1.55 | 0.94 | 98 | 1013.5 |
| 20260506094018 | 7 | 0 | 0.0 | 0.0 | 0.05 | 1.52 | 0.91 | 98 | 1013.4 |
| 20260506093018 | 7 | 0 | 0.0 | 0.0 | 0.05 | 1.52 | 0.91 | 98 | 1013.4 |
| 20260506091023 | 7 | 0 | 0.0 | 0.0 | 0.05 | 1.50 | 0.89 | 98 | 1013.4 |
| 20260506090023 | 7 | 0 | 0.0 | 0.0 | 0.05 | 1.50 | 0.89 | 98 | 1013.3 |
| 20260506084022 | 7 | 0 | 0.0 | 0.0 | 0.03 | 1.50 | 0.89 | 98 | 1013.1 |
| 20260506083022 | 7 | 0 | 0.0 | 0.0 | 0.03 | 1.50 | 0.89 | 98 | 1013.0 |
| 20260506082042 | 7 | 0 | 0.0 | 0.0 | 0.00 | 1.47 | 0.86 | 98 | 1012.9 |
| 20260506081022 | 7 | 0 | 0.0 | 0.0 | 0.00 | 1.47 | 0.86 | 98 | 1012.9 |
| 20260506073020 | 7 | 0 | 0.0 | 0.0 | 0.05 | 1.50 | 0.86 | 98 | 1012.6 |
| 20260506072020 | 7 | 0 | 0.0 | 0.0 | 0.08 | 1.50 | 0.86 | 98 | 1012.5 |
| 20260506071016 | 7 | 0 | 0.0 | 0.0 | 0.08 | 1.52 | 0.86 | 98 | 1012.5 |
| 20260506062022 | 6 | 0 | 0.0 | 0.0 | 0.20 | 1.55 | 0.81 | 98 | 1012.2 |
| 20260506061017 | 6 | 0 | 0.0 | 0.0 | 0.18 | 1.50 | 0.79 | 98 | 1012.3 |
| 20260506051020 | 6 | 0 | 0.0 | 0.0 | 0.15 | 1.37 | 0.61 | 98 | 1012.2 |
| 20260506045022 | 7 | 0 | 0.0 | 0.0 | 0.13 | 1.35 | 0.58 | 98 | 1012.2 |
| 20260506044039 | 7 | 0 | 0.0 | 0.0 | 0.10 | 1.35 | 0.56 | 98 | 1012.1 |
| 20260506043042 | 7 | 0 | 0.0 | 0.0 | 0.08 | 1.30 | 0.51 | 98 | 1012.1 |
| 20260506042017 | 7 | 0 | 0.0 | 0.0 | 0.05 | 1.27 | 0.51 | 98 | 1012.1 |
| 20260506035017 | 7 | 0 | 0.0 | 0.0 | 0.05 | 1.24 | 0.46 | 98 | 1012.0 |
| 20260506034022 | 7 | 0 | 0.0 | 0.0 | 0.05 | 1.24 | 0.46 | 98 | 1012.1 |
| 20260506033022 | 7 | 0 | 0.0 | 0.0 | 0.05 | 1.24 | 0.46 | 97 | 1012.1 |
| 20260506032022 | 7 | 0 | 0.0 | 0.0 | 0.05 | 1.22 | 0.43 | 97 | 1012.1 |
| 20260506031020 | 7 | 0 | 0.0 | 0.0 | 0.05 | 1.22 | 0.43 | 97 | 1012.0 |
| 20260506030022 | 7 | 0 | 0.0 | 0.0 | 0.08 | 1.22 | 0.43 | 97 | 1012.1 |
| 20260506025017 | 7 | 0 | 0.0 | 0.0 | 0.08 | 1.19 | 0.43 | 97 | 1012.1 |
| 20260506024041 | 7 | 0 | 0.0 | 0.0 | 0.10 | 1.19 | 0.43 | 97 | 1012.1 |
| 20260506023016 | 7 | 0 | 0.0 | 0.0 | 0.10 | 1.17 | 0.41 | 97 | 1012.2 |
| 20260506021042 | 8 | 0 | 0.0 | 0.0 | 0.13 | 1.17 | 0.38 | 97 | 1012.2 |
| 20260506020016 | 8 | 0 | 0.0 | 0.0 | 0.15 | 1.17 | 0.38 | 97 | 1012.2 |
| 20260506015022 | 8 | 0 | 0.0 | 0.0 | 0.15 | 1.14 | 0.36 | 97 | 1012.2 |
| 20260506014042 | 8 | 0 | 0.0 | 0.0 | 0.15 | 1.12 | 0.33 | 97 | 1012.2 |
| 20260506012021 | 8 | 0 | 0.0 | 0.0 | 0.15 | 1.09 | 0.30 | 97 | 1012.3 |
| 20260506011022 | 8 | 0 | 0.0 | 0.0 | 0.13 | 1.07 | 0.28 | 97 | 1012.2 |
| 20260506010017 | 8 | 0 | 0.0 | 0.0 | 0.13 | 1.04 | 0.25 | 97 | 1012.3 |
| 20260506005023 | 8 | 0 | 0.0 | 0.0 | 0.10 | 1.02 | 0.23 | 97 | 1012.3 |
| 20260506004021 | 8 | 0 | 0.0 | 0.0 | 0.08 | 0.99 | 0.20 | 97 | 1012.4 |
| 20260506003039 | 8 | 0 | 0.0 | 0.0 | 0.10 | 0.99 | 0.20 | 97 | 1012.4 |
| 20260506002016 | 8 | 0 | 0.0 | 0.0 | 0.08 | 0.97 | 0.18 | 97 | 1012.5 |
| 20260506000044 | 8 | 0 | 0.0 | 0.0 | 0.10 | 0.94 | 0.15 | 97 | 1012.6 |
| 20260505235023 | 8 | 0 | 0.0 | 0.0 | 0.08 | 0.91 | 0.15 | 97 | 1012.7 |
| 20260505233034 | 8 | 0 | 0.0 | 0.0 | 0.10 | 0.89 | 0.13 | 98 | 1012.7 |
| 20260505232022 | 8 | 0 | 0.0 | 0.0 | 0.08 | 0.89 | 0.10 | 98 | 1012.8 |
| 20260505231037 | 8 | 0 | 0.0 | 0.0 | 0.10 | 0.89 | 0.10 | 98 | 1012.8 |
| 20260505230028 | 8 | 0 | 0.0 | 0.0 | 0.08 | 0.86 | 0.08 | 98 | 1012.9 |
| 20260505225047 | 8 | 0 | 0.0 | 0.0 | 0.08 | 0.84 | 0.05 | 98 | 1012.9 |
| 20260505224041 | 8 | 0 | 0.0 | 0.0 | 0.08 | 0.84 | 0.05 | 98 | 1012.9 |
| 20260505223045 | 8 | 0 | 0.0 | 0.0 | 0.08 | 0.81 | 0.05 | 97 | 1012.9 |
| 20260505221045 | 8 | 0 | 0.0 | 0.0 | 0.08 | 0.79 | 0.03 | 98 | 1012.9 |
| 20260505220025 | 8 | 0 | 0.0 | 0.0 | 0.08 | 0.79 | 0.00 | 98 | 1013.0 |
| 20260505215049 | 8 | 0 | 0.0 | 0.0 | 0.08 | 0.79 | 0.79 | 98 | 1013.1 |
| 20260505214048 | 8 | 0 | 0.0 | 0.0 | 0.08 | 0.76 | 0.76 | 98 | 1013.1 |
| 20260505213022 | 8 | 0 | 0.0 | 0.0 | 0.10 | 0.76 | 0.76 | 98 | 1013.2 |
| 20260505212048 | 8 | 0 | 0.0 | 0.0 | 0.10 | 0.74 | 0.74 | 98 | 1013.2 |
| 20260505210029 | 8 | 0 | 0.0 | 0.0 | 0.13 | 0.71 | 0.71 | 98 | 1013.3 |
| 20260505205038 | 8 | 0 | 0.0 | 0.0 | 0.10 | 0.71 | 0.71 | 98 | 1013.3 |